Location: Quedlinburg
(51.7921°N, 11.1414°E)
Time: 18:05:04
(UTC+02:00)

NOAA 18 - Pass Details

Date: 18 March 2026
Orbit: 837 x 857 km, 98.8° (Epoch: 15 April)

Event Time Altitude Azimuth Distance (km) Brightness Sun altitude
Exits shadow 22:29:32 47° 334° (NNW) 1,103 6.0 -33.6°
Drops below altitude 10° 22:33:22 10° 343° (NNW) 2,464 8.4 -33.9°
Sets 22:35:45 0° 344° (NNW) 3,404 9.3 -34.1°
